Tracking 18850 objects as of 22-Nov-2017
HD Live streaming from Space Station
objects crossing your sky now

METEOR 1-19

Track METEOR 1-19 now!
10-day predictions
METEOR 1-19 is classified as:


NORAD ID: 7490
Int'l Code: 1974-083A
Perigee: 845.3 km
Apogee: 887.8 km
Inclination: 81.2 °
Period: 102.1 minutes
Semi major axis: 7237 km
RCS: 4.6009 m2 (large)
Launch date: October 28, 1974
Source: Commonwealth of Independent States (former USSR) (CIS)
Launch site: PLESETSK MISSILE AND SPACE COMPLEX (PKMTR)
aabbcc
Your satellite tracking list
Your tracking list is empty




NASA's NSSDC Master Catalog

Two Line Element Set (TLE):
1  7490U 74083A   17324.55498083 +.00000083 +00000-0 +40272-4 0  9991
2  7490 081.1857 325.0088 0029394 288.4524 071.3452 14.09985597213654
Source of the keplerian elements: AFSPC